Flag for Switzerland Weather past 2 weeks in Yverdon-les-Bains, Vaud, Switzerland

Now
59 °F

Cool.


Feels Like: 59 °F
Forecast: 49 / 75 °F
Wind: 1 mph from Southwest

Location: Payerne

Current Time: Jul 14, 2014 at 8:21:38 AM

Latest Report: Jul 14, 2014 at 7:00 AM


Visibility: N/A

Pressure: 29.96 "Hg

Humidity: 95%

Dew point: 58 °F

Location of Yverdon-les-BainsLocation

Historic Weather in Yverdon-les-Bains — Graph

°F

Yverdon-les-Bains temperature yesterday

Maximum temperature yesterday: 72 °F (at 3:00 PM)
Minimum temperature yesterday: 59 °F (at 6:00 AM)
Average temperature yesterday: 64 °F

Past Weeks' High & Low Weather Summary

 TemperatureHumidityPressure
High79 °F (Jul 4, 6:00 PM)100% (Jul 2, 10:00 PM)30.30 "Hg (Jul 2, 10:00 PM)
Low44 °F (Jul 1, 6:00 AM)34% (Jun 30, 6:00 PM)29.71 "Hg (Jul 4, 7:00 PM)
Average60 °F83%29.99 "Hg
* Reported Jun 29 7:00 AM — Jul 14 7:00 AM, Yverdon-les-Bains, Weather by CustomWeather, © 2014

Note: Actual official high and low records may vary slightly from our data, if they occured in-between our weather recording intervals... More about our weather records

Advertising

Yverdon-les-Bains weather history for previous 24 hours

 ConditionsComfort  
Time TempWeatherWind HumidityBarometerVisibility
7:00 AM
Jul 14
59 °FCool.1 mph95%29.96 "HgN/A
6:00 AM58 °FCool.3 mph96%29.95 "HgN/A
5:00 AM58 °FCool.1 mph98%29.94 "HgN/A
4:00 AM59 °FCool.3 mph95%29.93 "HgN/A
3:00 AM60 °FCool.3 mph94%29.93 "HgN/A
2:00 AM59 °FOvercast.5 mph95%29.93 "Hg14 mi
1:00 AM59 °FCool.3 mph97%29.94 "HgN/A
12:00 AM59 °FCool.2 mph94%29.94 "HgN/A
11:00 PM
Jul 13
60 °FOvercast.1 mph94%29.93 "Hg14 mi
10:00 PM60 °FCool.3 mph93%29.92 "HgN/A
9:00 PM61 °FCool.3 mph92%29.90 "HgN/A
8:00 PM62 °FOvercast.13 mph86%29.89 "Hg12 mi
7:00 PM68 °FMild.7 mph59%29.85 "HgN/A
6:00 PM71 °FMild.7 mph57%29.85 "HgN/A
5:00 PM68 °FMild.1 mph74%29.87 "HgN/A
4:00 PM70 °FMild.12 mph57%29.86 "HgN/A
3:00 PM72 °FMild.9 mph51%29.86 "HgN/A
2:00 PM70 °FOvercast.8 mph56%29.88 "Hg12 mi
1:00 PM70 °FMild.7 mph54%29.88 "HgN/A
12:00 PM67 °FMild.8 mph66%29.90 "HgN/A
11:00 AM67 °FOvercast.5 mph68%29.91 "Hg11 mi
10:00 AM64 °FMild.5 mph78%29.93 "HgN/A
9:00 AM62 °FCool.3 mph85%29.94 "HgN/A
8:00 AM61 °FFog.2 mph89%29.94 "Hg5 mi
Weather by CustomWeather, © 2014

See weather overviewHow to use our weather pages